SHT9C EGPH-EGLL

Flight info

Callsign SHT9C
Flight time 1h 4m
Altitude 33000
Route GOSAM1D GOSAM P600 FENIK L612 NAVSO DCT AKOMU DCT VAMEB DCT NUGRA NUGRA2H
Aircraft A320/M-SDE3FGHIRWY/LB1

Departure

Time 2026-04-22 13:49
Airport Edinburgh Airport (EGPH)

Arrival

Time 2026-04-22 14:53
Airport London Heathrow Airport (EGLL)
Time Latitude Longitude Altitude Speed Heading
2026-04-22 13:22 55.94612 -3.36628 0 ft 0 kts 89°
2026-04-22 13:29 55.94612 -3.36629 116 ft 0 kts 89°
2026-04-22 13:39 55.94611 -3.36663 113 ft 4 kts 84°
2026-04-22 13:39 55.94609 -3.36694 112 ft 4 kts 71°
2026-04-22 13:40 55.94596 -3.36730 112 ft 4 kts 14°
2026-04-22 13:40 55.94590 -3.36733 113 ft 1 kts 359°
2026-04-22 13:42 55.94589 -3.36733 113 ft 0 kts 359°
2026-04-22 13:44 55.94592 -3.36733 112 ft 1 kts 359°
2026-04-22 13:44 55.94611 -3.36734 113 ft 4 kts 359°
2026-04-22 13:44 55.94660 -3.36735 116 ft 12 kts 359°
2026-04-22 13:44 55.94755 -3.36745 116 ft 15 kts 339°
2026-04-22 13:45 55.94850 -3.36777 116 ft 15 kts
2026-04-22 13:45 55.94925 -3.36871 114 ft 14 kts 271°
2026-04-22 13:45 55.94879 -3.37035 116 ft 16 kts 239°
2026-04-22 13:45 55.94818 -3.37214 116 ft 18 kts 238°
2026-04-22 13:46 55.94752 -3.37411 115 ft 19 kts 239°
2026-04-22 13:46 55.94680 -3.37623 115 ft 21 kts 239°
2026-04-22 13:46 55.94602 -3.37852 113 ft 22 kts 239°
2026-04-22 13:46 55.94519 -3.38098 114 ft 24 kts 239°
2026-04-22 13:47 55.94429 -3.38361 116 ft 26 kts 239°
2026-04-22 13:47 55.94352 -3.38590 114 ft 18 kts 239°
2026-04-22 13:47 55.94291 -3.38772 116 ft 17 kts 239°
2026-04-22 13:47 55.94325 -3.38907 114 ft 12 kts 330°
2026-04-22 13:48 55.94407 -3.38971 114 ft 13 kts 14°
2026-04-22 13:48 55.94463 -3.38834 114 ft 20 kts 59°
2026-04-22 13:48 55.94643 -3.38301 113 ft 82 kts 58°
2026-04-22 13:48 55.95032 -3.37150 113 ft 133 kts 59°
2026-04-22 13:49 55.95533 -3.35673 584 ft 139 kts 60°
2026-04-22 13:49 55.96064 -3.34228 1286 ft 141 kts 51°
2026-04-22 13:49 55.96791 -3.33030 1950 ft 143 kts 46°
2026-04-22 13:49 55.97575 -3.31765 2313 ft 163 kts 45°
2026-04-22 13:50 55.98468 -3.30319 2578 ft 183 kts 46°
2026-04-22 13:50 55.99491 -3.28746 2814 ft 209 kts 36°
2026-04-22 13:50 56.00980 -3.28057 3137 ft 242 kts 358°
2026-04-22 13:50 56.02591 -3.29290 3573 ft 267 kts 317°
2026-04-22 13:51 56.03540 -3.32138 4288 ft 273 kts 280°
2026-04-22 13:51 56.03547 -3.35522 5102 ft 274 kts 257°
2026-04-22 13:51 56.03407 -3.36731 5427 ft 274 kts 252°
2026-04-22 13:51 56.02844 -3.40010 6304 ft 277 kts 248°
2026-04-22 13:52 56.02198 -3.43278 7159 ft 281 kts 247°
2026-04-22 13:52 56.01559 -3.46604 7958 ft 285 kts 249°
2026-04-22 13:52 56.00962 -3.49997 8752 ft 288 kts 251°
2026-04-22 13:52 56.00407 -3.53451 9543 ft 291 kts 251°
2026-04-22 13:53 55.99878 -3.56955 10386 ft 294 kts 251°
2026-04-22 13:53 55.99354 -3.60538 10901 ft 307 kts 252°
2026-04-22 13:53 55.98802 -3.64364 11093 ft 330 kts 252°
2026-04-22 13:53 55.98214 -3.68467 11227 ft 352 kts 252°
2026-04-22 13:54 55.97593 -3.72813 11490 ft 367 kts 253°
2026-04-22 13:54 55.96959 -3.77261 12040 ft 372 kts 252°
2026-04-22 13:54 55.96318 -3.81750 12701 ft 374 kts 252°
2026-04-22 13:54 55.95670 -3.86267 13358 ft 376 kts 252°
2026-04-22 13:55 55.95014 -3.90800 14040 ft 378 kts 252°
2026-04-22 13:55 55.94357 -3.95298 14638 ft 381 kts 251°
2026-04-22 13:55 55.93416 -3.99685 15190 ft 379 kts 237°
2026-04-22 13:55 55.91822 -4.03391 15754 ft 376 kts 221°
2026-04-22 13:56 55.89767 -4.06250 16303 ft 376 kts 213°
2026-04-22 13:56 55.87625 -4.08976 16897 ft 379 kts 213°
2026-04-22 13:56 55.85471 -4.11706 17481 ft 382 kts 213°
2026-04-22 13:56 55.83293 -4.14455 18075 ft 385 kts 214°
2026-04-22 13:57 55.81105 -4.17216 18661 ft 387 kts 214°
2026-04-22 13:57 55.78902 -4.20000 19176 ft 390 kts 214°
2026-04-22 13:57 55.76681 -4.22798 19690 ft 393 kts 215°
2026-04-22 13:57 55.74439 -4.25592 20185 ft 395 kts 215°
2026-04-22 13:58 55.72173 -4.28400 20675 ft 398 kts 216°
2026-04-22 13:58 55.69889 -4.31221 21115 ft 401 kts 216°
2026-04-22 13:58 55.67593 -4.34050 21530 ft 405 kts 217°
2026-04-22 13:58 55.65271 -4.36912 21912 ft 408 kts 217°
2026-04-22 13:59 55.62937 -4.39793 22287 ft 411 kts 217°
2026-04-22 13:59 55.60583 -4.42702 22656 ft 414 kts 217°
2026-04-22 13:59 55.58213 -4.45626 23020 ft 417 kts 217°
2026-04-22 13:59 55.55820 -4.48568 23395 ft 420 kts 218°
2026-04-22 14:00 55.53411 -4.51521 23770 ft 422 kts 218°
2026-04-22 14:00 55.51024 -4.54442 24129 ft 424 kts 218°
2026-04-22 14:00 55.48597 -4.57409 24441 ft 426 kts 218°
2026-04-22 14:00 55.46157 -4.60390 24760 ft 427 kts 218°
2026-04-22 14:01 55.43714 -4.63373 25071 ft 429 kts 218°
2026-04-22 14:01 55.41257 -4.66368 25383 ft 430 kts 218°
2026-04-22 14:01 55.38790 -4.69372 25698 ft 431 kts 218°
2026-04-22 14:01 55.36327 -4.72365 26142 ft 430 kts 218°
2026-04-22 14:02 55.33868 -4.75343 26585 ft 428 kts 218°
2026-04-22 14:02 55.31396 -4.78249 27031 ft 429 kts 214°
2026-04-22 14:02 55.28752 -4.80686 27470 ft 430 kts 210°
2026-04-22 14:02 55.26080 -4.83032 27924 ft 429 kts 210°
2026-04-22 14:03 55.23412 -4.85370 28379 ft 428 kts 210°
2026-04-22 14:03 55.20757 -4.87695 28850 ft 426 kts 210°
2026-04-22 14:03 55.18110 -4.90013 29328 ft 425 kts 210°
2026-04-22 14:03 55.15468 -4.92324 29780 ft 424 kts 210°
2026-04-22 14:04 55.12833 -4.94630 30263 ft 422 kts 211°
2026-04-22 14:04 55.10209 -4.96922 30678 ft 422 kts 210°
2026-04-22 14:04 55.07584 -4.99212 31064 ft 421 kts 210°
2026-04-22 14:04 55.04967 -5.01493 31472 ft 420 kts 210°
2026-04-22 14:05 55.02354 -5.03763 31888 ft 419 kts 210°
2026-04-22 14:05 54.99744 -5.06024 32261 ft 419 kts 210°
2026-04-22 14:05 54.94484 -5.10572 32429 ft 429 kts 210°
2026-04-22 14:06 54.91786 -5.12901 32429 ft 436 kts 210°
2026-04-22 14:06 54.86084 -5.16720 32422 ft 446 kts 196°
2026-04-22 14:07 54.80008 -5.18956 32424 ft 446 kts 195°
2026-04-22 14:07 54.73936 -5.21197 32426 ft 446 kts 195°
2026-04-22 14:08 54.67863 -5.23430 32424 ft 446 kts 195°
2026-04-22 14:08 54.61836 -5.25628 32424 ft 446 kts 195°
2026-04-22 14:09 54.55760 -5.27787 32421 ft 447 kts 191°
2026-04-22 14:09 54.49561 -5.27504 32424 ft 455 kts 171°
2026-04-22 14:09 54.46520 -5.25896 32416 ft 459 kts 160°
2026-04-22 14:10 54.43675 -5.23347 32415 ft 464 kts 149°
2026-04-22 14:10 54.38470 -5.16733 32408 ft 466 kts 146°
2026-04-22 14:11 54.33289 -5.10077 32404 ft 466 kts 146°
2026-04-22 14:11 54.28086 -5.03442 32393 ft 466 kts 146°
2026-04-22 14:12 54.22893 -4.96835 32389 ft 466 kts 146°
2026-04-22 14:12 54.17692 -4.90233 32379 ft 466 kts 146°
2026-04-22 14:13 54.12493 -4.83643 32380 ft 465 kts 146°
2026-04-22 14:13 54.07407 -4.76795 32379 ft 468 kts 138°
2026-04-22 14:14 54.03366 -4.68050 32370 ft 472 kts 127°
2026-04-22 14:14 53.99685 -4.58887 32378 ft 472 kts 127°
2026-04-22 14:15 53.95933 -4.49621 32374 ft 473 kts 127°
2026-04-22 14:15 53.92198 -4.40457 32365 ft 473 kts 127°
2026-04-22 14:16 53.88477 -4.31345 32369 ft 473 kts 127°
2026-04-22 14:16 53.84725 -4.22172 32367 ft 473 kts 127°
2026-04-22 14:17 53.80968 -4.13032 32364 ft 473 kts 127°
2026-04-22 14:17 53.77197 -4.03880 32356 ft 473 kts 127°
2026-04-22 14:18 53.73429 -3.94757 32369 ft 474 kts 127°
2026-04-22 14:18 53.69646 -3.85632 32364 ft 474 kts 127°
2026-04-22 14:19 53.65859 -3.76540 32355 ft 474 kts 127°
2026-04-22 14:19 53.62063 -3.67466 32350 ft 474 kts 127°
2026-04-22 14:20 53.56342 -3.53858 32360 ft 474 kts 127°
2026-04-22 14:20 53.52526 -3.44798 32363 ft 475 kts 127°
2026-04-22 14:21 53.46784 -3.31251 32366 ft 475 kts 127°
2026-04-22 14:22 53.41020 -3.17729 32367 ft 475 kts 127°
2026-04-22 14:23 53.35184 -3.04294 32370 ft 475 kts 128°
2026-04-22 14:23 53.31212 -2.95442 32371 ft 476 kts 129°
2026-04-22 14:24 53.27230 -2.86599 32369 ft 476 kts 128°
2026-04-22 14:24 53.23273 -2.77808 32368 ft 477 kts 128°
2026-04-22 14:25 53.19290 -2.68953 32344 ft 477 kts 128°
2026-04-22 14:25 53.15302 -2.60114 32345 ft 477 kts 128°
2026-04-22 14:26 53.12007 -2.52732 32354 ft 478 kts 127°
2026-04-22 14:26 53.08245 -2.43586 32353 ft 479 kts 125°
2026-04-22 14:27 53.04505 -2.34421 32346 ft 479 kts 130°
2026-04-22 14:27 52.99683 -2.26923 32336 ft 474 kts 148°
2026-04-22 14:28 52.94108 -2.21110 32340 ft 474 kts 150°
2026-04-22 14:28 52.88534 -2.15282 32341 ft 474 kts 150°
2026-04-22 14:29 52.82957 -2.09429 32339 ft 475 kts 150°
2026-04-22 14:29 52.77373 -2.03607 32344 ft 475 kts 150°
2026-04-22 14:30 52.71773 -1.97808 32341 ft 475 kts 150°
2026-04-22 14:30 52.66169 -1.92019 32340 ft 475 kts 150°
2026-04-22 14:31 52.60568 -1.86239 32342 ft 475 kts 150°
2026-04-22 14:31 52.54962 -1.80470 32345 ft 475 kts 150°
2026-04-22 14:32 52.49475 -1.74847 32323 ft 455 kts 150°
2026-04-22 14:32 52.46790 -1.72105 31327 ft 461 kts 150°
2026-04-22 14:32 52.44016 -1.69288 30069 ft 474 kts 150°
2026-04-22 14:32 52.41187 -1.66419 28904 ft 480 kts 149°
2026-04-22 14:33 52.38341 -1.63530 27815 ft 484 kts 149°
2026-04-22 14:33 52.35477 -1.60618 26729 ft 486 kts 149°
2026-04-22 14:33 52.32596 -1.57692 25643 ft 488 kts 149°
2026-04-22 14:33 52.29705 -1.54763 24663 ft 490 kts 148°
2026-04-22 14:34 52.26826 -1.51851 23903 ft 484 kts 148°
2026-04-22 14:34 52.23979 -1.48976 23082 ft 477 kts 148°
2026-04-22 14:34 52.21240 -1.45993 22329 ft 469 kts 141°
2026-04-22 14:34 52.18774 -1.42587 21643 ft 461 kts 139°
2026-04-22 14:35 52.16365 -1.39211 20947 ft 453 kts 139°
2026-04-22 14:35 52.14002 -1.35909 20584 ft 439 kts 139°
2026-04-22 14:35 52.11728 -1.32744 20453 ft 421 kts 139°
2026-04-22 14:35 52.09537 -1.29701 20319 ft 406 kts 139°
2026-04-22 14:36 52.07422 -1.26765 20183 ft 394 kts 139°
2026-04-22 14:36 52.05368 -1.23923 20052 ft 382 kts 139°
2026-04-22 14:36 52.03379 -1.21174 19922 ft 369 kts 139°
2026-04-22 14:36 52.01440 -1.18492 19488 ft 365 kts 139°
2026-04-22 14:37 51.99507 -1.15822 19008 ft 364 kts 139°
2026-04-22 14:37 51.97612 -1.13207 18546 ft 363 kts 139°
2026-04-22 14:37 51.95702 -1.10571 17989 ft 355 kts 139°
2026-04-22 14:37 51.93861 -1.08032 17457 ft 341 kts 139°
2026-04-22 14:38 51.92085 -1.05584 16937 ft 329 kts 139°
2026-04-22 14:38 51.90369 -1.03221 16424 ft 319 kts 139°
2026-04-22 14:38 51.88706 -1.00932 15919 ft 309 kts 139°
2026-04-22 14:38 51.87090 -0.98709 15414 ft 300 kts 139°
2026-04-22 14:39 51.85586 -0.96465 15080 ft 286 kts 129°
2026-04-22 14:39 51.84572 -0.93834 14955 ft 267 kts 117°
2026-04-22 14:39 51.83772 -0.91203 14735 ft 256 kts 117°
2026-04-22 14:40 51.82203 -0.86093 13846 ft 252 kts 118°
2026-04-22 14:40 51.81427 -0.83565 13301 ft 250 kts 117°
2026-04-22 14:40 51.80658 -0.81061 12781 ft 248 kts 117°
2026-04-22 14:40 51.79896 -0.78585 12264 ft 246 kts 117°
2026-04-22 14:41 51.79148 -0.76149 11784 ft 244 kts 117°
2026-04-22 14:41 51.78396 -0.73701 11285 ft 243 kts 117°
2026-04-22 14:41 51.77646 -0.71266 10793 ft 241 kts 117°
2026-04-22 14:41 51.76903 -0.68854 10310 ft 240 kts 117°
2026-04-22 14:42 51.76150 -0.66457 9781 ft 238 kts 121°
2026-04-22 14:42 51.75009 -0.64587 9253 ft 237 kts 150°
2026-04-22 14:42 51.73409 -0.63957 8731 ft 241 kts 175°
2026-04-22 14:42 51.71728 -0.64136 8204 ft 244 kts 187°
2026-04-22 14:43 51.70188 -0.65331 7723 ft 253 kts 218°
2026-04-22 14:43 51.68991 -0.67413 7458 ft 253 kts 225°
2026-04-22 14:43 51.67886 -0.69601 7340 ft 252 kts 226°
2026-04-22 14:43 51.66793 -0.71802 7322 ft 252 kts 225°
2026-04-22 14:44 51.65698 -0.74016 7326 ft 253 kts 226°
2026-04-22 14:44 51.64605 -0.76234 7309 ft 253 kts 226°
2026-04-22 14:44 51.63514 -0.78440 7097 ft 251 kts 226°
2026-04-22 14:44 51.62427 -0.80643 6824 ft 251 kts 226°
2026-04-22 14:45 51.61343 -0.82841 6563 ft 250 kts 226°
2026-04-22 14:45 51.60267 -0.85031 6302 ft 249 kts 226°
2026-04-22 14:45 51.59194 -0.87223 6015 ft 249 kts 226°
2026-04-22 14:45 51.58073 -0.89312 5744 ft 243 kts 211°
2026-04-22 14:46 51.56611 -0.90412 5449 ft 228 kts 186°
2026-04-22 14:46 51.55053 -0.90836 5168 ft 226 kts 178°
2026-04-22 14:46 51.53574 -0.90438 4901 ft 212 kts 146°
2026-04-22 14:46 51.52434 -0.89004 4573 ft 209 kts 133°
2026-04-22 14:47 51.51416 -0.87372 4373 ft 203 kts 131°
2026-04-22 14:47 51.50442 -0.85784 4228 ft 196 kts 131°
2026-04-22 14:47 51.49496 -0.84249 4090 ft 191 kts 131°
2026-04-22 14:47 51.48579 -0.82779 3969 ft 184 kts 130°
2026-04-22 14:48 51.47683 -0.81356 3849 ft 178 kts 131°
2026-04-22 14:48 51.46815 -0.79994 3702 ft 172 kts 130°
2026-04-22 14:48 51.45962 -0.78670 3525 ft 169 kts 131°
2026-04-22 14:48 51.45179 -0.77287 3268 ft 165 kts 110°
2026-04-22 14:49 51.45090 -0.75549 3065 ft 161 kts 64°
2026-04-22 14:49 51.45740 -0.74116 2958 ft 161 kts 59°
2026-04-22 14:49 51.46322 -0.72575 2750 ft 161 kts 63°
2026-04-22 14:49 51.46892 -0.71027 2591 ft 161 kts 62°
2026-04-22 14:50 51.47334 -0.69362 2548 ft 162 kts 77°
2026-04-22 14:50 51.47531 -0.67599 2413 ft 161 kts 84°
2026-04-22 14:50 51.47616 -0.65813 2228 ft 162 kts 89°
2026-04-22 14:50 51.47655 -0.64000 2029 ft 161 kts 88°
2026-04-22 14:51 51.47677 -0.62204 1812 ft 160 kts 88°
2026-04-22 14:51 51.47690 -0.60470 1596 ft 149 kts 89°
2026-04-22 14:51 51.47700 -0.58861 1412 ft 142 kts 89°
2026-04-22 14:51 51.47708 -0.57307 1225 ft 139 kts 89°
2026-04-22 14:52 51.47716 -0.55670 1022 ft 152 kts 89°
2026-04-22 14:52 51.47725 -0.53952 804 ft 153 kts 89°
2026-04-22 14:52 51.47732 -0.52333 590 ft 137 kts 90°
2026-04-22 14:52 51.47737 -0.50842 388 ft 131 kts 89°
2026-04-22 14:53 51.47742 -0.49394 204 ft 127 kts 90°
2026-04-22 14:53 51.47750 -0.47984 89 ft 123 kts 91°
2026-04-22 14:53 51.47750 -0.46963 88 ft 50 kts 90°
2026-04-22 14:53 51.47753 -0.46700 89 ft 14 kts 95°
2026-04-22 14:54 51.47713 -0.46698 89 ft 6 kts 258°
2026-04-22 14:54 51.47689 -0.46765 89 ft 9 kts 241°
2026-04-22 14:54 51.47659 -0.46848 90 ft 7 kts 234°
2026-04-22 14:54 51.47637 -0.46873 89 ft 2 kts 206°
2026-04-22 14:55 51.47586 -0.46929 90 ft 15 kts 242°
2026-04-22 14:55 51.47582 -0.47107 90 ft 17 kts 270°
2026-04-22 14:55 51.47582 -0.47307 88 ft 19 kts 270°
2026-04-22 14:55 51.47582 -0.47527 89 ft 21 kts 269°
2026-04-22 14:56 51.47580 -0.47769 88 ft 23 kts 269°
2026-04-22 14:56 51.47579 -0.48031 89 ft 24 kts 270°
2026-04-22 14:56 51.47578 -0.48261 89 ft 17 kts 270°
2026-04-22 14:56 51.47578 -0.48466 88 ft 19 kts 269°
2026-04-22 14:57 51.47576 -0.48677 87 ft 20 kts 270°
2026-04-22 14:57 51.47575 -0.48874 87 ft 16 kts 270°
2026-04-22 14:57 51.47520 -0.48955 87 ft 13 kts 156°
2026-04-22 14:57 51.47453 -0.48894 87 ft 12 kts 181°
2026-04-22 14:58 51.47407 -0.48894 87 ft 0 kts 180°